Time,TemperatureF,DewpointF,PressureIn,WindDirection,WindDirectionDegrees,WindSpeedMPH,WindSpeedGustMPH,Humidity,HourlyPrecipIn,Conditions,Clouds,dailyrainin,SoftwareType,DateUTC
2013-08-16 00:01:00,66.3,63.9,30.08,ENE,68,1.0,2.0,92,0.00,,-RA,0.00,VWS V14.01,2013-08-16 04:01:00,
2013-08-16 00:03:00,66.3,63.9,30.08,ENE,73,4.0,4.0,92,0.00,,-RA,0.00,VWS V14.01,2013-08-16 04:03:00,
2013-08-16 00:04:00,66.3,63.6,30.07,ENE,73,0.0,4.0,91,0.00,,-RA,0.00,VWS V14.01,2013-08-16 04:04:00,
2013-08-16 00:09:00,66.3,63.6,30.08,ENE,73,0.0,4.0,91,0.00,,-RA,0.00,VWS V14.01,2013-08-16 04:09:00,
2013-08-16 00:14:00,66.3,63.6,30.08,ENE,59,4.0,5.0,91,0.00,,-RA,0.00,VWS V14.01,2013-08-16 04:14:00,
2013-08-16 00:17:00,66.3,63.6,30.07,ENE,72,0.0,5.0,91,0.00,,-RA,0.00,VWS V14.01,2013-08-16 04:17:00,
2013-08-16 00:18:00,66.3,63.6,30.07,ENE,78,2.0,5.0,91,0.00,,-RA,0.00,VWS V14.01,2013-08-16 04:18:00,
2013-08-16 00:23:00,66.3,63.6,30.07,ENE,67,0.0,5.0,91,0.00,,-RA,0.00,VWS V14.01,2013-08-16 04:23:00,
2013-08-16 00:28:00,66.3,63.6,30.07,ENE,57,3.0,5.0,91,0.00,,-RA,0.00,VWS V14.01,2013-08-16 04:28:00,
2013-08-16 00:33:00,66.2,63.5,30.07,ENE,71,2.0,5.0,91,0.00,,-RA,0.00,VWS V14.01,2013-08-16 04:33:00,
2013-08-16 00:38:00,66.2,63.5,30.07,ENE,77,0.0,5.0,91,0.00,,-RA,0.00,VWS V14.01,2013-08-16 04:38:00,
2013-08-16 00:43:00,66.2,63.5,30.08,ENE,77,0.0,5.0,91,0.00,,-RA,0.00,VWS V14.01,2013-08-16 04:43:00,
2013-08-16 00:48:00,66.3,63.6,30.08,ENE,77,0.0,5.0,91,0.00,,-RA,0.00,VWS V14.01,2013-08-16 04:48:00,
2013-08-16 00:53:00,66.3,63.6,30.08,ENE,76,1.0,5.0,91,0.00,,-RA,0.00,VWS V14.01,2013-08-16 04:53:00,
2013-08-16 00:58:00,66.2,63.5,30.08,ENE,77,0.0,5.0,91,0.00,,-RA,0.00,VWS V14.01,2013-08-16 04:58:00,
2013-08-16 01:03:00,66.2,63.8,30.07,ENE,76,0.0,1.0,92,0.00,,-RA,0.00,VWS V14.01,2013-08-16 05:03:00,
2013-08-16 01:08:00,66.1,63.7,30.07,ENE,76,0.0,1.0,92,0.00,,-RA,0.00,VWS V14.01,2013-08-16 05:08:00,
2013-08-16 01:13:00,66.0,63.6,30.07,ENE,76,0.0,2.0,92,0.00,,-RA,0.00,VWS V14.01,2013-08-16 05:13:00,
2013-08-16 01:19:00,65.8,63.7,30.07,NE,50,2.0,3.0,93,0.00,,-RA,0.00,VWS V14.01,2013-08-16 05:19:00,
2013-08-16 01:24:00,65.6,63.5,30.07,NE,55,0.0,4.0,93,0.00,,-RA,0.00,VWS V14.01,2013-08-16 05:24:00,
2013-08-16 01:29:00,65.5,63.4,30.06,NE,56,3.0,4.0,93,0.00,,-RA,0.00,VWS V14.01,2013-08-16 05:29:00,
2013-08-16 01:34:00,65.4,63.6,30.06,ENE,59,3.0,5.0,94,0.00,,-RA,0.00,VWS V14.01,2013-08-16 05:34:00,
2013-08-16 01:39:00,65.4,63.6,30.06,ENE,58,0.0,5.0,94,0.00,,-RA,0.00,VWS V14.01,2013-08-16 05:39:00,
2013-08-16 01:44:00,65.3,63.5,30.06,ENE,61,2.0,5.0,94,0.00,,-RA,0.00,VWS V14.01,2013-08-16 05:44:00,
2013-08-16 01:49:00,65.3,63.5,30.06,ENE,61,0.0,5.0,94,0.00,,-RA,0.00,VWS V14.01,2013-08-16 05:49:00,
2013-08-16 01:54:00,65.3,63.5,30.06,ENE,61,0.0,5.0,94,0.00,,-RA,0.00,VWS V14.01,2013-08-16 05:54:00,
2013-08-16 01:59:00,65.2,63.7,30.06,ENE,61,0.0,5.0,95,0.00,,-RA,0.00,VWS V14.01,2013-08-16 05:59:00,
2013-08-16 02:04:00,65.2,63.7,30.06,ENE,61,0.0,4.0,95,0.00,,-RA,0.00,VWS V14.01,2013-08-16 06:04:00,
2013-08-16 02:09:00,65.2,63.7,30.06,ENE,61,0.0,4.0,95,0.00,,-RA,0.00,VWS V14.01,2013-08-16 06:09:00,
2013-08-16 02:14:00,65.1,63.6,30.06,NNE,18,1.0,4.0,95,0.00,,-RA,0.00,VWS V14.01,2013-08-16 06:14:00,
2013-08-16 02:19:00,65.0,63.5,30.06,North,360,0.0,4.0,95,0.00,,-RA,0.00,VWS V14.01,2013-08-16 06:19:00,
2013-08-16 02:24:00,65.0,63.5,30.05,ENE,65,0.0,4.0,95,0.01,,-RA,0.01,VWS V14.01,2013-08-16 06:24:00,
2013-08-16 02:29:00,64.9,63.7,30.05,NNE,24,0.0,6.0,96,0.04,,-RA,0.04,VWS V14.01,2013-08-16 06:29:00,
2013-08-16 02:34:00,64.7,63.2,30.05,NE,34,0.0,6.0,95,0.04,,-RA,0.04,VWS V14.01,2013-08-16 06:34:00,
2013-08-16 02:39:00,64.5,63.3,30.05,NNE,27,1.0,6.0,96,0.04,,-RA,0.04,VWS V14.01,2013-08-16 06:39:00,
2013-08-16 02:44:00,64.4,63.2,30.05,NNE,27,0.0,6.0,96,0.04,,-RA,0.04,VWS V14.01,2013-08-16 06:44:00,
2013-08-16 02:49:00,64.3,63.1,30.04,ENE,69,0.0,6.0,96,0.04,,-RA,0.04,VWS V14.01,2013-08-16 06:49:00,
2013-08-16 02:54:00,64.3,63.1,30.04,ENE,61,2.0,6.0,96,0.04,,-RA,0.04,VWS V14.01,2013-08-16 06:54:00,
2013-08-16 02:59:00,64.2,63.0,30.04,ENE,69,3.0,6.0,96,0.04,,-RA,0.04,VWS V14.01,2013-08-16 06:59:00,
2013-08-16 03:04:00,64.1,63.2,30.04,ENE,78,1.0,5.0,97,0.04,,-RA,0.04,VWS V14.01,2013-08-16 07:04:00,
2013-08-16 03:09:00,64.1,63.2,30.04,ENE,66,1.0,5.0,97,0.04,,-RA,0.04,VWS V14.01,2013-08-16 07:09:00,
2013-08-16 03:15:00,64.1,63.2,30.04,ENE,62,6.0,6.0,97,0.04,,-RA,0.04,VWS V14.01,2013-08-16 07:15:00,
2013-08-16 03:20:00,64.1,63.2,30.04,ENE,57,2.0,6.0,97,0.04,,-RA,0.04,VWS V14.01,2013-08-16 07:20:00,
2013-08-16 03:25:00,64.1,63.2,30.04,NE,56,0.0,6.0,97,0.04,,-RA,0.04,VWS V14.01,2013-08-16 07:25:00,
2013-08-16 03:30:00,64.1,63.2,30.04,NE,34,0.0,6.0,97,0.04,,-RA,0.04,VWS V14.01,2013-08-16 07:30:00,
2013-08-16 03:35:00,64.1,63.2,30.04,ENE,59,0.0,6.0,97,0.04,,-RA,0.04,VWS V14.01,2013-08-16 07:35:00,
2013-08-16 03:40:00,64.2,63.3,30.04,ENE,59,3.0,6.0,97,0.04,,-RA,0.04,VWS V14.01,2013-08-16 07:40:00,
2013-08-16 03:45:00,64.2,63.6,30.04,ENE,59,0.0,6.0,98,0.04,,-RA,0.04,VWS V14.01,2013-08-16 07:45:00,
2013-08-16 03:50:00,64.2,63.6,30.04,ENE,59,1.0,6.0,98,0.04,,-RA,0.04,VWS V14.01,2013-08-16 07:50:00,
2013-08-16 03:55:00,64.2,63.6,30.05,ENE,59,2.0,6.0,98,0.04,,-RA,0.04,VWS V14.01,2013-08-16 07:55:00,
2013-08-16 04:00:00,64.3,63.7,30.04,ENE,59,0.0,1.0,98,0.00,,-RA,0.04,VWS V14.01,2013-08-16 08:00:00,
2013-08-16 04:05:00,64.2,63.6,30.04,ENE,59,0.0,3.0,98,0.00,,-RA,0.04,VWS V14.01,2013-08-16 08:05:00,
2013-08-16 04:10:00,64.3,63.7,30.04,ENE,59,0.0,3.0,98,0.00,,-RA,0.04,VWS V14.01,2013-08-16 08:10:00,
2013-08-16 04:15:00,64.2,63.6,30.04,ENE,59,0.0,3.0,98,0.00,,-RA,0.04,VWS V14.01,2013-08-16 08:15:00,
2013-08-16 04:20:00,64.2,63.6,30.04,NNE,30,0.0,4.0,98,0.00,,-RA,0.04,VWS V14.01,2013-08-16 08:20:00,
2013-08-16 04:25:00,64.2,63.6,30.04,NNE,33,0.0,4.0,98,0.00,,-RA,0.04,VWS V14.01,2013-08-16 08:25:00,
2013-08-16 04:30:00,64.2,63.6,30.04,NNE,33,0.0,4.0,98,0.00,,-RA,0.04,VWS V14.01,2013-08-16 08:30:00,
2013-08-16 04:35:00,64.1,63.5,30.04,North,11,0.0,4.0,98,0.00,,-RA,0.04,VWS V14.01,2013-08-16 08:35:00,
2013-08-16 04:40:00,64.1,63.5,30.05,North,11,1.0,4.0,98,0.01,,-RA,0.05,VWS V14.01,2013-08-16 08:40:00,
2013-08-16 04:45:00,64.1,63.5,30.05,North,11,1.0,4.0,98,0.01,,-RA,0.05,VWS V14.01,2013-08-16 08:45:00,
2013-08-16 04:50:00,64.1,63.5,30.04,ENE,69,0.0,4.0,98,0.01,,-RA,0.05,VWS V14.01,2013-08-16 08:50:00,
2013-08-16 04:55:00,64.0,63.4,30.04,ENE,72,0.0,4.0,98,0.02,,-RA,0.06,VWS V14.01,2013-08-16 08:55:00,
2013-08-16 05:00:00,64.0,63.4,30.03,ENE,57,1.0,2.0,98,0.02,,-RA,0.06,VWS V14.01,2013-08-16 09:00:00,
2013-08-16 05:05:00,63.9,63.3,30.03,NE,38,2.0,2.0,98,0.03,,-RA,0.07,VWS V14.01,2013-08-16 09:05:00,
2013-08-16 05:10:00,63.9,63.3,30.03,ENE,64,5.0,5.0,98,0.03,,-RA,0.07,VWS V14.01,2013-08-16 09:10:00,
2013-08-16 05:15:00,63.9,63.3,30.04,NE,47,1.0,6.0,98,0.03,,-RA,0.07,VWS V14.01,2013-08-16 09:15:00,
2013-08-16 05:20:00,63.8,63.2,30.04,East,80,3.0,6.0,98,0.04,,-RA,0.08,VWS V14.01,2013-08-16 09:20:00,
2013-08-16 05:25:00,63.8,63.2,30.04,East,80,2.0,6.0,98,0.04,,-RA,0.08,VWS V14.01,2013-08-16 09:25:00,
2013-08-16 05:30:00,63.7,63.1,30.04,East,79,4.0,7.0,98,0.05,,-RA,0.09,VWS V14.01,2013-08-16 09:30:00,
2013-08-16 05:35:00,63.6,63.0,30.04,NNE,27,0.0,7.0,98,0.06,,-RA,0.10,VWS V14.01,2013-08-16 09:35:00,
2013-08-16 05:40:00,63.6,63.0,30.04,East,79,2.0,7.0,98,0.06,,-RA,0.10,VWS V14.01,2013-08-16 09:40:00,
2013-08-16 05:45:00,63.5,62.9,30.04,NNE,19,2.0,7.0,98,0.06,,-RA,0.10,VWS V14.01,2013-08-16 09:45:00,
2013-08-16 05:50:00,63.5,62.9,30.04,NE,53,0.0,7.0,98,0.07,,-RA,0.11,VWS V14.01,2013-08-16 09:50:00,
2013-08-16 05:55:00,63.4,62.8,30.04,ENE,60,0.0,9.0,98,0.08,,-RA,0.12,VWS V14.01,2013-08-16 09:55:00,
2013-08-16 06:00:00,63.4,62.8,30.04,East,87,1.0,4.0,98,0.07,,-RA,0.13,VWS V14.01,2013-08-16 10:00:00,
2013-08-16 06:05:00,63.2,62.6,30.04,East,88,4.0,10.0,98,0.08,,-RA,0.14,VWS V14.01,2013-08-16 10:05:00,
2013-08-16 06:10:00,63.2,62.6,30.04,ENE,62,3.0,10.0,98,0.08,,-RA,0.14,VWS V14.01,2013-08-16 10:10:00,
2013-08-16 06:15:00,63.1,62.5,30.04,ENE,75,2.0,10.0,98,0.09,,-RA,0.15,VWS V14.01,2013-08-16 10:15:00,
2013-08-16 06:20:00,63.0,62.7,30.05,NNE,19,1.0,10.0,99,0.09,,-RA,0.15,VWS V14.01,2013-08-16 10:20:00,
2013-08-16 06:25:00,63.0,62.7,30.05,ENE,71,4.0,10.0,99,0.11,,-RA,0.17,VWS V14.01,2013-08-16 10:25:00,
2013-08-16 06:30:00,62.9,62.6,30.05,ENE,65,3.0,10.0,99,0.13,,-RA,0.19,VWS V14.01,2013-08-16 10:30:00,
2013-08-16 06:35:00,62.9,62.3,30.05,NE,49,0.0,10.0,98,0.15,,-RA,0.21,VWS V14.01,2013-08-16 10:35:00,
2013-08-16 06:40:00,62.8,62.2,30.06,NNE,23,4.0,10.0,98,0.17,,-RA,0.23,VWS V14.01,2013-08-16 10:40:00,
2013-08-16 06:45:00,62.8,62.2,30.06,NNE,19,4.0,10.0,98,0.20,,-RA,0.26,VWS V14.01,2013-08-16 10:45:00,
2013-08-16 06:50:00,62.8,62.2,30.06,ENE,69,5.0,10.0,98,0.24,,-RA,0.30,VWS V14.01,2013-08-16 10:50:00,
2013-08-16 06:55:00,62.8,62.5,30.05,NNE,19,2.0,10.0,99,0.26,,-RA,0.32,VWS V14.01,2013-08-16 10:55:00,
2013-08-16 07:00:00,62.7,62.4,30.06,NE,53,0.0,2.0,99,0.20,,-RA,0.33,VWS V14.01,2013-08-16 11:00:00,
2013-08-16 07:05:00,62.7,62.4,30.06,NNE,17,3.0,5.0,99,0.20,,-RA,0.33,VWS V14.01,2013-08-16 11:05:00,
2013-08-16 07:10:00,62.7,62.4,30.07,North,5,0.0,6.0,99,0.20,,-RA,0.33,VWS V14.01,2013-08-16 11:10:00,
2013-08-16 07:15:00,62.7,62.4,30.07,NE,52,0.0,6.0,99,0.20,,-RA,0.33,VWS V14.01,2013-08-16 11:15:00,
2013-08-16 07:20:00,62.7,62.4,30.08,NE,47,0.0,6.0,99,0.20,,-RA,0.33,VWS V14.01,2013-08-16 11:20:00,
2013-08-16 07:25:00,62.8,62.5,30.08,NNE,22,3.0,6.0,99,0.20,,-RA,0.33,VWS V14.01,2013-08-16 11:25:00,
2013-08-16 07:30:00,62.8,62.5,30.08,NE,35,0.0,6.0,99,0.20,,-RA,0.33,VWS V14.01,2013-08-16 11:30:00,
2013-08-16 07:35:00,62.9,62.6,30.08,East,92,4.0,6.0,99,0.20,,-RA,0.33,VWS V14.01,2013-08-16 11:35:00,
2013-08-16 07:40:00,62.8,62.5,30.08,ENE,72,2.0,7.0,99,0.20,,-RA,0.33,VWS V14.01,2013-08-16 11:40:00,
2013-08-16 07:45:00,62.8,62.5,30.08,ENE,74,4.0,9.0,99,0.20,,-RA,0.33,VWS V14.01,2013-08-16 11:45:00,
2013-08-16 07:50:00,62.9,62.6,30.07,ENE,61,0.0,9.0,99,0.20,,-RA,0.33,VWS V14.01,2013-08-16 11:50:00,
2013-08-16 07:55:00,62.8,62.5,30.08,NNE,21,2.0,9.0,99,0.20,,-RA,0.33,VWS V14.01,2013-08-16 11:55:00,
2013-08-16 08:00:00,62.8,62.5,30.08,NNE,29,6.0,6.0,99,0.00,,-RA,0.33,VWS V14.01,2013-08-16 12:00:00,
2013-08-16 08:05:00,62.8,62.5,30.07,NE,38,6.0,8.0,99,0.00,,-RA,0.33,VWS V14.01,2013-08-16 12:05:00,
2013-08-16 08:10:00,62.8,62.5,30.08,ENE,75,1.0,8.0,99,0.00,,-RA,0.33,VWS V14.01,2013-08-16 12:10:00,
2013-08-16 08:14:00,62.8,62.5,30.08,North,9,5.0,9.0,99,0.00,,-RA,0.33,VWS V14.01,2013-08-16 12:14:00,
2013-08-16 08:19:00,62.8,62.5,30.08,ENE,78,5.0,9.0,99,0.01,,-RA,0.34,VWS V14.01,2013-08-16 12:19:00,
2013-08-16 08:24:00,62.8,62.5,30.08,NNE,12,5.0,10.0,99,0.01,,-RA,0.34,VWS V14.01,2013-08-16 12:24:00,
2013-08-16 08:29:00,62.8,62.5,30.07,ENE,67,4.0,10.0,99,0.01,,-RA,0.34,VWS V14.01,2013-08-16 12:29:00,
2013-08-16 08:34:00,62.8,62.5,30.07,NE,48,6.0,11.0,99,0.01,,-RA,0.34,VWS V14.01,2013-08-16 12:34:00,
2013-08-16 08:39:00,62.8,62.5,30.07,ENE,75,0.0,12.0,99,0.01,,-RA,0.34,VWS V14.01,2013-08-16 12:39:00,
2013-08-16 08:44:00,62.7,62.4,30.08,ENE,63,2.0,12.0,99,0.01,,-RA,0.34,VWS V14.01,2013-08-16 12:44:00,
2013-08-16 08:49:00,62.7,62.4,30.08,ENE,67,5.0,13.0,99,0.01,,-RA,0.34,VWS V14.01,2013-08-16 12:49:00,
2013-08-16 08:54:00,62.7,62.4,30.07,ENE,78,4.0,13.0,99,0.02,,-RA,0.35,VWS V14.01,2013-08-16 12:54:00,
2013-08-16 08:59:00,62.7,62.4,30.07,East,83,7.0,7.0,99,0.03,,-RA,0.36,VWS V14.01,2013-08-16 12:59:00,
2013-08-16 09:04:00,62.7,62.4,30.07,NE,46,5.0,14.0,99,0.03,,-RA,0.36,VWS V14.01,2013-08-16 13:04:00,
2013-08-16 09:09:00,62.7,62.4,30.07,East,86,9.0,14.0,99,0.03,,-RA,0.36,VWS V14.01,2013-08-16 13:09:00,
2013-08-16 09:14:00,62.6,62.3,30.07,East,88,4.0,14.0,99,0.03,,-RA,0.36,VWS V14.01,2013-08-16 13:14:00,
2013-08-16 09:19:00,62.7,62.4,30.07,ENE,65,4.0,14.0,99,0.03,,-RA,0.36,VWS V14.01,2013-08-16 13:19:00,
2013-08-16 09:24:00,62.7,62.4,30.07,NE,55,2.0,14.0,99,0.04,,-RA,0.37,VWS V14.01,2013-08-16 13:24:00,
2013-08-16 09:29:00,62.7,62.4,30.07,NE,49,6.0,14.0,99,0.04,,-RA,0.37,VWS V14.01,2013-08-16 13:29:00,
2013-08-16 09:34:00,62.7,62.4,30.07,ENE,69,7.0,14.0,99,0.05,,-RA,0.38,VWS V14.01,2013-08-16 13:34:00,
2013-08-16 09:39:00,62.8,62.5,30.07,NE,34,2.0,14.0,99,0.05,,-RA,0.38,VWS V14.01,2013-08-16 13:39:00,
2013-08-16 09:44:00,62.9,62.6,30.08,East,87,3.0,14.0,99,0.06,,-RA,0.39,VWS V14.01,2013-08-16 13:44:00,
2013-08-16 09:49:00,62.9,62.6,30.08,NNE,17,4.0,14.0,99,0.07,,-RA,0.40,VWS V14.01,2013-08-16 13:49:00,
2013-08-16 09:54:00,62.9,62.6,30.08,ENE,65,3.0,14.0,99,0.09,,-RA,0.42,VWS V14.01,2013-08-16 13:54:00,
2013-08-16 09:59:00,62.9,62.6,30.08,ENE,78,9.0,9.0,99,0.10,,-RA,0.46,VWS V14.01,2013-08-16 13:59:00,
2013-08-16 10:04:00,63.0,62.7,30.08,ENE,76,3.0,14.0,99,0.13,,-RA,0.49,VWS V14.01,2013-08-16 14:04:00,
2013-08-16 10:09:00,63.0,62.7,30.08,NE,48,4.0,14.0,99,0.15,,-RA,0.51,VWS V14.01,2013-08-16 14:09:00,
2013-08-16 10:14:00,63.0,62.7,30.08,NE,45,3.0,14.0,99,0.17,,-RA,0.53,VWS V14.01,2013-08-16 14:14:00,
2013-08-16 10:19:00,63.0,62.7,30.08,ENE,72,6.0,14.0,99,0.19,,-RA,0.55,VWS V14.01,2013-08-16 14:19:00,
2013-08-16 10:24:00,63.0,62.7,30.07,ENE,67,3.0,14.0,99,0.22,,-RA,0.58,VWS V14.01,2013-08-16 14:24:00,
2013-08-16 10:29:00,63.0,62.7,30.07,East,79,9.0,14.0,99,0.24,,-RA,0.60,VWS V14.01,2013-08-16 14:29:00,
2013-08-16 10:34:00,63.0,62.7,30.07,ENE,67,4.0,14.0,99,0.26,,-RA,0.62,VWS V14.01,2013-08-16 14:34:00,
2013-08-16 10:39:00,63.1,62.8,30.07,NE,49,8.0,14.0,99,0.27,,-RA,0.63,VWS V14.01,2013-08-16 14:39:00,
2013-08-16 10:44:00,63.1,62.8,30.07,NE,47,3.0,14.0,99,0.29,,-RA,0.65,VWS V14.01,2013-08-16 14:44:00,
2013-08-16 10:49:00,63.1,62.8,30.07,NE,43,5.0,14.0,99,0.31,,-RA,0.67,VWS V14.01,2013-08-16 14:49:00,
2013-08-16 10:54:00,63.1,62.8,30.08,ENE,71,7.0,14.0,99,0.33,,-RA,0.69,VWS V14.01,2013-08-16 14:54:00,
2013-08-16 10:59:00,63.1,62.8,30.08,ENE,73,11.0,11.0,99,0.24,,-RA,0.70,VWS V14.01,2013-08-16 14:59:00,
2013-08-16 11:04:00,63.1,62.8,30.08,East,80,13.0,13.0,99,0.26,,-RA,0.72,VWS V14.01,2013-08-16 15:04:00,
2013-08-16 11:09:00,63.1,62.8,30.08,ENE,58,4.0,13.0,99,0.33,,-RA,0.79,VWS V14.01,2013-08-16 15:09:00,
2013-08-16 11:14:00,63.0,62.7,30.07,ENE,64,6.0,15.0,99,0.40,,-RA,0.86,VWS V14.01,2013-08-16 15:14:00,
2013-08-16 11:19:00,63.0,62.7,30.08,NNE,22,9.0,15.0,99,0.43,,-RA,0.89,VWS V14.01,2013-08-16 15:19:00,
2013-08-16 11:24:00,63.0,62.7,30.09,NNE,33,6.0,15.0,99,0.45,,-RA,0.91,VWS V14.01,2013-08-16 15:24:00,
2013-08-16 11:29:00,63.1,62.8,30.09,ENE,67,1.0,15.0,99,0.48,,-RA,0.94,VWS V14.01,2013-08-16 15:29:00,
2013-08-16 11:34:00,63.1,62.8,30.08,ENE,75,2.0,15.0,99,0.54,,-RA,1.00,VWS V14.01,2013-08-16 15:34:00,
2013-08-16 11:39:00,63.0,62.7,30.08,East,92,6.0,15.0,99,0.64,,-RA,1.10,VWS V14.01,2013-08-16 15:39:00,
2013-08-16 11:44:00,63.1,62.8,30.08,East,80,5.0,15.0,99,0.69,,-RA,1.15,VWS V14.01,2013-08-16 15:44:00,
2013-08-16 11:49:00,63.1,62.8,30.08,East,80,5.0,15.0,99,0.72,,-RA,1.18,VWS V14.01,2013-08-16 15:49:00,
2013-08-16 11:54:00,63.1,62.8,30.09,ESE,106,0.0,15.0,99,0.74,,-RA,1.20,VWS V14.01,2013-08-16 15:54:00,
2013-08-16 11:59:00,63.1,62.8,30.09,NNE,17,4.0,4.0,99,0.51,,-RA,1.21,VWS V14.01,2013-08-16 15:59:00,
2013-08-16 12:04:00,63.1,62.8,30.10,North,355,2.0,5.0,99,0.52,,-RA,1.22,VWS V14.01,2013-08-16 16:04:00,
2013-08-16 12:09:00,63.1,62.8,30.10,NW,305,2.0,5.0,99,0.53,,-RA,1.23,VWS V14.01,2013-08-16 16:09:00,
2013-08-16 12:14:00,63.1,62.8,30.10,NE,51,0.0,5.0,99,0.54,,-RA,1.24,VWS V14.01,2013-08-16 16:14:00,
2013-08-16 12:19:00,63.2,62.9,30.09,NE,52,4.0,5.0,99,0.54,,-RA,1.24,VWS V14.01,2013-08-16 16:19:00,
2013-08-16 12:24:00,63.2,62.9,30.09,ENE,60,3.0,8.0,99,0.55,,-RA,1.25,VWS V14.01,2013-08-16 16:24:00,
2013-08-16 12:29:00,63.3,63.0,30.08,ENE,59,4.0,8.0,99,0.55,,-RA,1.25,VWS V14.01,2013-08-16 16:29:00,
2013-08-16 12:34:00,63.4,63.1,30.09,ENE,65,2.0,8.0,99,0.55,,-RA,1.25,VWS V14.01,2013-08-16 16:34:00,
2013-08-16 12:39:00,63.5,63.2,30.09,ENE,58,2.0,8.0,99,0.55,,-RA,1.25,VWS V14.01,2013-08-16 16:39:00,
2013-08-16 12:44:00,63.5,63.2,30.09,ENE,71,0.0,8.0,99,0.56,,-RA,1.26,VWS V14.01,2013-08-16 16:44:00,
2013-08-16 12:49:00,63.6,63.3,30.09,NE,56,3.0,9.0,99,0.56,,-RA,1.26,VWS V14.01,2013-08-16 16:49:00,
2013-08-16 12:54:00,63.6,63.3,30.08,NE,56,2.0,9.0,99,0.60,,-RA,1.30,VWS V14.01,2013-08-16 16:54:00,
2013-08-16 12:59:00,63.6,63.3,30.08,ENE,78,4.0,6.0,99,0.16,,-RA,1.37,VWS V14.01,2013-08-16 16:59:00,
2013-08-16 13:04:00,63.6,63.6,30.07,ENE,74,2.0,11.0,100,0.21,,-RA,1.42,VWS V14.01,2013-08-16 17:04:00,
2013-08-16 13:09:00,63.7,63.7,30.07,ENE,63,5.0,11.0,100,0.24,,-RA,1.45,VWS V14.01,2013-08-16 17:09:00,
2013-08-16 13:14:00,63.8,63.8,30.07,ENE,69,2.0,11.0,100,0.24,,-RA,1.45,VWS V14.01,2013-08-16 17:14:00,
2013-08-16 13:19:00,63.8,63.5,30.07,ENE,78,4.0,11.0,99,0.24,,-RA,1.45,VWS V14.01,2013-08-16 17:19:00,
2013-08-16 13:24:00,63.9,63.6,30.07,ENE,69,2.0,11.0,99,0.24,,-RA,1.45,VWS V14.01,2013-08-16 17:24:00,
2013-08-16 13:29:00,63.9,63.6,30.08,ENE,74,6.0,11.0,99,0.25,,-RA,1.46,VWS V14.01,2013-08-16 17:29:00,
2013-08-16 13:34:00,64.0,63.7,30.07,East,93,5.0,11.0,99,0.26,,-RA,1.47,VWS V14.01,2013-08-16 17:34:00,
2013-08-16 13:39:00,64.0,63.7,30.07,ENE,71,3.0,11.0,99,0.33,,-RA,1.54,VWS V14.01,2013-08-16 17:39:00,
2013-08-16 13:44:00,64.0,63.7,30.07,NE,37,4.0,11.0,99,0.39,,-RA,1.60,VWS V14.01,2013-08-16 17:44:00,
2013-08-16 13:49:00,64.0,63.7,30.07,ENE,69,4.0,11.0,99,0.44,,-RA,1.65,VWS V14.01,2013-08-16 17:49:00,
2013-08-16 13:54:00,64.1,63.8,30.07,ENE,62,1.0,11.0,99,0.47,,-RA,1.68,VWS V14.01,2013-08-16 17:54:00,
2013-08-16 13:59:00,64.1,63.8,30.07,ENE,65,3.0,11.0,99,0.51,,-RA,1.72,VWS V14.01,2013-08-16 17:59:00,
2013-08-16 14:04:00,64.2,63.9,30.07,ENE,70,3.0,7.0,99,0.44,,-RA,1.81,VWS V14.01,2013-08-16 18:04:00,
2013-08-16 14:09:00,64.2,63.9,30.07,ENE,78,3.0,9.0,99,0.51,,-RA,1.88,VWS V14.01,2013-08-16 18:09:00,
2013-08-16 14:14:00,64.3,64.0,30.07,East,82,2.0,9.0,99,0.55,,-RA,1.92,VWS V14.01,2013-08-16 18:14:00,
2013-08-16 14:19:00,64.3,64.3,30.07,NNE,32,3.0,9.0,100,0.58,,-RA,1.95,VWS V14.01,2013-08-16 18:19:00,
2013-08-16 14:24:00,64.5,64.5,30.06,ENE,68,1.0,9.0,100,0.61,,-RA,1.98,VWS V14.01,2013-08-16 18:24:00,
2013-08-16 14:29:00,64.4,64.4,30.06,NE,55,4.0,10.0,100,0.62,,-RA,1.99,VWS V14.01,2013-08-16 18:29:00,
2013-08-16 14:34:00,64.4,64.4,30.06,East,81,6.0,11.0,100,0.62,,-RA,1.99,VWS V14.01,2013-08-16 18:34:00,
2013-08-16 14:39:00,64.2,64.2,30.06,NE,49,4.0,12.0,100,0.62,,-RA,1.99,VWS V14.01,2013-08-16 18:39:00,
2013-08-16 14:44:00,64.3,64.0,30.06,East,94,7.0,12.0,99,0.63,,-RA,2.00,VWS V14.01,2013-08-16 18:44:00,
2013-08-16 14:49:00,64.1,63.8,30.06,ENE,65,9.0,13.0,99,0.66,,-RA,2.03,VWS V14.01,2013-08-16 18:49:00,
2013-08-16 14:54:00,64.1,63.8,30.06,ENE,60,10.0,13.0,99,0.68,,-RA,2.05,VWS V14.01,2013-08-16 18:54:00,
2013-08-16 14:59:00,64.1,63.8,30.06,NE,34,0.0,13.0,99,0.68,,-RA,2.05,VWS V14.01,2013-08-16 18:59:00,
2013-08-16 15:04:00,64.1,63.8,30.06,NE,46,6.0,8.0,99,0.34,,-RA,2.06,VWS V14.01,2013-08-16 19:04:00,
2013-08-16 15:09:00,64.1,63.8,30.06,East,82,5.0,8.0,99,0.35,,-RA,2.07,VWS V14.01,2013-08-16 19:09:00,
2013-08-16 15:14:00,64.0,63.7,30.06,East,81,4.0,9.0,99,0.35,,-RA,2.07,VWS V14.01,2013-08-16 19:14:00,
2013-08-16 15:19:00,63.9,63.9,30.06,ENE,61,3.0,12.0,100,0.36,,-RA,2.08,VWS V14.01,2013-08-16 19:19:00,
2013-08-16 15:24:00,63.8,63.8,30.06,NNE,33,1.0,12.0,100,0.36,,-RA,2.08,VWS V14.01,2013-08-16 19:24:00,
2013-08-16 15:29:00,63.7,63.7,30.06,East,84,4.0,12.0,100,0.37,,-RA,2.09,VWS V14.01,2013-08-16 19:29:00,
2013-08-16 15:34:00,63.7,63.7,30.06,NE,51,3.0,12.0,100,0.37,,-RA,2.09,VWS V14.01,2013-08-16 19:34:00,
2013-08-16 15:39:00,63.8,63.8,30.06,NNE,33,5.0,12.0,100,0.39,,-RA,2.11,VWS V14.01,2013-08-16 19:39:00,
2013-08-16 15:44:00,63.8,63.8,30.06,NNW,331,3.0,12.0,100,0.40,,-RA,2.12,VWS V14.01,2013-08-16 19:44:00,
2013-08-16 15:49:00,63.8,63.8,30.06,ENE,69,3.0,12.0,100,0.41,,-RA,2.13,VWS V14.01,2013-08-16 19:49:00,
2013-08-16 15:54:00,63.7,63.7,30.06,East,89,6.0,12.0,100,0.42,,-RA,2.14,VWS V14.01,2013-08-16 19:54:00,
2013-08-16 15:59:00,63.7,63.7,30.06,NNE,28,5.0,12.0,100,0.42,,-RA,2.14,VWS V14.01,2013-08-16 19:59:00,
2013-08-16 16:04:00,63.7,63.7,30.06,North,5,1.0,6.0,100,0.10,,-RA,2.15,VWS V14.01,2013-08-16 20:04:00,
2013-08-16 16:09:00,63.7,63.7,30.07,NNE,24,2.0,11.0,100,0.10,,-RA,2.15,VWS V14.01,2013-08-16 20:09:00,
2013-08-16 16:14:00,63.6,63.6,30.07,NNE,28,5.0,11.0,100,0.10,,-RA,2.15,VWS V14.01,2013-08-16 20:14:00,
2013-08-16 16:19:00,63.6,63.3,30.07,East,85,3.0,12.0,99,0.10,,-RA,2.15,VWS V14.01,2013-08-16 20:19:00,
2013-08-16 16:24:00,63.4,63.1,30.07,ENE,75,5.0,12.0,99,0.11,,-RA,2.16,VWS V14.01,2013-08-16 20:24:00,
2013-08-16 16:29:00,63.5,63.2,30.07,North,5,4.0,12.0,99,0.11,,-RA,2.16,VWS V14.01,2013-08-16 20:29:00,
2013-08-16 16:34:00,63.6,63.3,30.06,East,83,5.0,12.0,99,0.11,,-RA,2.16,VWS V14.01,2013-08-16 20:34:00,
2013-08-16 16:39:00,63.7,63.7,30.06,ENE,68,3.0,12.0,100,0.11,,-RA,2.16,VWS V14.01,2013-08-16 20:39:00,
2013-08-16 16:44:00,63.8,63.8,30.06,ENE,57,5.0,12.0,100,0.11,,-RA,2.16,VWS V14.01,2013-08-16 20:44:00,
2013-08-16 16:49:00,63.6,63.3,30.06,NE,36,5.0,12.0,99,0.11,,-RA,2.16,VWS V14.01,2013-08-16 20:49:00,
2013-08-16 16:54:00,63.8,63.8,30.06,East,82,5.0,12.0,100,0.11,,-RA,2.16,VWS V14.01,2013-08-16 20:54:00,
2013-08-16 16:59:00,63.8,63.8,30.06,ENE,73,4.0,12.0,100,0.11,,-RA,2.16,VWS V14.01,2013-08-16 20:59:00,
2013-08-16 17:04:00,63.9,63.9,30.06,ENE,64,5.0,10.0,100,0.02,,-RA,2.16,VWS V14.01,2013-08-16 21:04:00,
2013-08-16 17:09:00,63.9,63.9,30.06,East,92,7.0,10.0,100,0.02,,-RA,2.16,VWS V14.01,2013-08-16 21:09:00,
2013-08-16 17:14:00,63.7,63.4,30.06,ENE,69,3.0,15.0,99,0.02,,-RA,2.16,VWS V14.01,2013-08-16 21:14:00,
2013-08-16 17:19:00,63.6,63.3,30.06,East,80,6.0,15.0,99,0.02,,-RA,2.16,VWS V14.01,2013-08-16 21:19:00,
2013-08-16 17:24:00,63.7,63.4,30.06,ENE,66,5.0,15.0,99,0.02,,-RA,2.16,VWS V14.01,2013-08-16 21:24:00,
2013-08-16 17:29:00,63.8,63.5,30.06,NE,52,5.0,15.0,99,0.02,,-RA,2.16,VWS V14.01,2013-08-16 21:29:00,
2013-08-16 17:34:00,63.8,63.5,30.06,East,83,7.0,15.0,99,0.02,,-RA,2.16,VWS V14.01,2013-08-16 21:34:00,
2013-08-16 17:39:00,64.0,63.7,30.06,ENE,76,7.0,15.0,99,0.02,,-RA,2.16,VWS V14.01,2013-08-16 21:39:00,
2013-08-16 17:44:00,64.0,63.7,30.06,NNE,28,7.0,15.0,99,0.02,,-RA,2.16,VWS V14.01,2013-08-16 21:44:00,
2013-08-16 17:49:00,64.0,63.7,30.06,ENE,67,11.0,15.0,99,0.02,,-RA,2.16,VWS V14.01,2013-08-16 21:49:00,
2013-08-16 17:54:00,64.0,63.7,30.05,ENE,73,3.0,15.0,99,0.02,,-RA,2.16,VWS V14.01,2013-08-16 21:54:00,
2013-08-16 17:59:00,64.0,63.7,30.05,ENE,60,4.0,15.0,99,0.02,,-RA,2.16,VWS V14.01,2013-08-16 21:59:00,
2013-08-16 18:04:00,64.1,63.8,30.05,East,85,3.0,12.0,99,0.00,,-RA,2.16,VWS V14.01,2013-08-16 22:04:00,
2013-08-16 18:09:00,64.1,63.8,30.05,NNE,30,8.0,12.0,99,0.00,,-RA,2.16,VWS V14.01,2013-08-16 22:09:00,
2013-08-16 18:14:00,64.2,63.9,30.05,ENE,62,2.0,12.0,99,0.00,,-RA,2.16,VWS V14.01,2013-08-16 22:14:00,
2013-08-16 18:19:00,64.3,64.0,30.06,NE,43,2.0,12.0,99,0.00,,-RA,2.16,VWS V14.01,2013-08-16 22:19:00,
2013-08-16 18:24:00,64.4,64.1,30.06,ENE,69,5.0,12.0,99,0.00,,-RA,2.16,VWS V14.01,2013-08-16 22:24:00,
2013-08-16 18:29:00,64.3,64.0,30.05,ENE,69,3.0,14.0,99,0.00,,-RA,2.16,VWS V14.01,2013-08-16 22:29:00,
2013-08-16 18:34:00,64.4,64.1,30.06,East,81,3.0,14.0,99,0.00,,-RA,2.16,VWS V14.01,2013-08-16 22:34:00,
2013-08-16 18:39:00,64.5,64.2,30.06,NE,55,3.0,14.0,99,0.00,,-RA,2.16,VWS V14.01,2013-08-16 22:39:00,
2013-08-16 18:44:00,64.5,64.2,30.06,ENE,78,6.0,16.0,99,0.00,,-RA,2.16,VWS V14.01,2013-08-16 22:44:00,
2013-08-16 18:49:00,64.5,64.2,30.06,ENE,61,7.0,17.0,99,0.00,,-RA,2.16,VWS V14.01,2013-08-16 22:49:00,
2013-08-16 18:54:00,64.5,64.2,30.06,North,11,4.0,17.0,99,0.00,,-RA,2.16,VWS V14.01,2013-08-16 22:54:00,
2013-08-16 18:59:00,64.5,64.2,30.06,ENE,74,0.0,17.0,99,0.00,,-RA,2.16,VWS V14.01,2013-08-16 22:59:00,
2013-08-16 19:04:00,64.5,64.2,30.06,NE,46,3.0,14.0,99,0.00,,-RA,2.16,VWS V14.01,2013-08-16 23:04:00,
2013-08-16 19:09:00,64.4,63.8,30.06,ENE,65,6.0,14.0,98,0.00,,-RA,2.16,VWS V14.01,2013-08-16 23:09:00,
2013-08-16 19:14:00,64.4,63.8,30.06,NNE,20,3.0,14.0,98,0.00,,-RA,2.16,VWS V14.01,2013-08-16 23:14:00,
2013-08-16 19:19:00,64.3,63.7,30.06,East,80,10.0,14.0,98,0.00,,-RA,2.16,VWS V14.01,2013-08-16 23:19:00,
2013-08-16 19:24:00,64.3,63.7,30.07,East,82,2.0,14.0,98,0.00,,-RA,2.16,VWS V14.01,2013-08-16 23:24:00,
2013-08-16 19:29:00,64.4,63.8,30.07,ENE,78,4.0,14.0,98,0.00,,-RA,2.16,VWS V14.01,2013-08-16 23:29:00,
2013-08-16 19:34:00,64.3,63.7,30.07,ENE,67,4.0,14.0,98,0.00,,-RA,2.16,VWS V14.01,2013-08-16 23:34:00,
2013-08-16 19:39:00,64.2,63.6,30.07,NE,40,3.0,14.0,98,0.00,,-RA,2.16,VWS V14.01,2013-08-16 23:39:00,
2013-08-16 19:44:00,64.1,63.5,30.07,ENE,70,0.0,14.0,98,0.00,,-RA,2.16,VWS V14.01,2013-08-16 23:44:00,
2013-08-16 19:49:00,64.1,63.5,30.07,NNE,18,0.0,14.0,98,0.00,,-RA,2.16,VWS V14.01,2013-08-16 23:49:00,
2013-08-16 19:54:00,64.1,63.5,30.08,NNE,32,0.0,14.0,98,0.00,,-RA,2.16,VWS V14.01,2013-08-16 23:54:00,
2013-08-16 19:59:00,64.0,63.4,30.08,ENE,74,2.0,14.0,98,0.00,,-RA,2.16,VWS V14.01,2013-08-16 23:59:00,
2013-08-16 20:04:00,63.9,63.3,30.08,North,5,5.0,10.0,98,0.00,,-RA,2.16,VWS V14.01,2013-08-17 00:04:00,
2013-08-16 20:09:00,63.9,63.3,30.08,North,9,6.0,10.0,98,0.00,,-RA,2.16,VWS V14.01,2013-08-17 00:09:00,
2013-08-16 20:14:00,63.8,63.2,30.08,East,82,6.0,11.0,98,0.00,,-RA,2.16,VWS V14.01,2013-08-17 00:14:00,
2013-08-16 20:19:00,63.8,63.2,30.08,ENE,61,4.0,11.0,98,0.00,,-RA,2.16,VWS V14.01,2013-08-17 00:19:00,
2013-08-16 20:24:00,63.8,63.2,30.09,ENE,77,6.0,11.0,98,0.00,,-RA,2.16,VWS V14.01,2013-08-17 00:24:00,
2013-08-16 20:29:00,63.8,63.2,30.09,ENE,63,5.0,11.0,98,0.00,,-RA,2.16,VWS V14.01,2013-08-17 00:29:00,
2013-08-16 20:34:00,63.8,63.2,30.09,ENE,75,2.0,11.0,98,0.00,,-RA,2.16,VWS V14.01,2013-08-17 00:34:00,
2013-08-16 20:39:00,63.8,63.2,30.09,ENE,65,7.0,11.0,98,0.00,,-RA,2.16,VWS V14.01,2013-08-17 00:39:00,
2013-08-16 20:44:00,63.7,63.1,30.10,NNE,27,4.0,11.0,98,0.00,,-RA,2.16,VWS V14.01,2013-08-17 00:44:00,
2013-08-16 20:49:00,63.7,63.1,30.10,NNE,22,3.0,11.0,98,0.00,,-RA,2.16,VWS V14.01,2013-08-17 00:49:00,
2013-08-16 20:54:00,63.7,63.1,30.10,ENE,67,5.0,11.0,98,0.00,,-RA,2.16,VWS V14.01,2013-08-17 00:54:00,
2013-08-16 20:59:00,63.6,63.0,30.10,NNE,23,1.0,11.0,98,0.00,,-RA,2.16,VWS V14.01,2013-08-17 00:59:00,
2013-08-16 21:04:00,63.6,63.0,30.10,ENE,74,4.0,10.0,98,0.00,,-RA,2.16,VWS V14.01,2013-08-17 01:04:00,
2013-08-16 21:09:00,63.6,63.0,30.10,ENE,61,5.0,10.0,98,0.00,,-RA,2.16,VWS V14.01,2013-08-17 01:09:00,
2013-08-16 21:14:00,63.6,63.0,30.10,NE,36,2.0,10.0,98,0.00,,-RA,2.16,VWS V14.01,2013-08-17 01:14:00,
2013-08-16 21:19:00,63.6,63.0,30.10,NE,41,1.0,10.0,98,0.00,,-RA,2.16,VWS V14.01,2013-08-17 01:19:00,
2013-08-16 21:24:00,63.5,63.2,30.10,NE,46,2.0,10.0,99,0.00,,-RA,2.16,VWS V14.01,2013-08-17 01:24:00,
2013-08-16 21:29:00,63.5,63.2,30.11,ENE,68,5.0,10.0,99,0.00,,-RA,2.16,VWS V14.01,2013-08-17 01:29:00,
2013-08-16 21:34:00,63.4,62.8,30.11,NE,50,5.0,10.0,98,0.00,,-RA,2.16,VWS V14.01,2013-08-17 01:34:00,
2013-08-16 21:39:00,63.4,62.8,30.11,ENE,69,3.0,12.0,98,0.00,,-RA,2.16,VWS V14.01,2013-08-17 01:39:00,
2013-08-16 21:44:00,63.4,62.8,30.11,ENE,57,2.0,12.0,98,0.00,,-RA,2.16,VWS V14.01,2013-08-17 01:44:00,
2013-08-16 21:49:00,63.4,63.1,30.11,ENE,68,1.0,12.0,99,0.00,,-RA,2.16,VWS V14.01,2013-08-17 01:49:00,
2013-08-16 21:54:00,63.3,63.0,30.11,ENE,72,4.0,12.0,99,0.00,,-RA,2.16,VWS V14.01,2013-08-17 01:54:00,
2013-08-16 21:59:00,63.2,62.9,30.12,ENE,59,6.0,12.0,99,0.00,,-RA,2.16,VWS V14.01,2013-08-17 01:59:00,
2013-08-16 22:04:00,63.1,62.8,30.11,ENE,63,2.0,9.0,99,0.00,,-RA,2.16,VWS V14.01,2013-08-17 02:04:00,
2013-08-16 22:09:00,63.1,62.8,30.12,ENE,73,7.0,14.0,99,0.00,,-RA,2.16,VWS V14.01,2013-08-17 02:09:00,
2013-08-16 22:14:00,63.0,62.7,30.12,ENE,65,6.0,14.0,99,0.00,,-RA,2.16,VWS V14.01,2013-08-17 02:14:00,
2013-08-16 22:19:00,62.9,62.6,30.12,ENE,67,3.0,14.0,99,0.00,,-RA,2.16,VWS V14.01,2013-08-17 02:19:00,
2013-08-16 22:24:00,62.9,62.6,30.12,NE,50,4.0,14.0,99,0.00,,-RA,2.16,VWS V14.01,2013-08-17 02:24:00,
2013-08-16 22:29:00,62.9,62.6,30.12,ENE,69,5.0,14.0,99,0.00,,-RA,2.16,VWS V14.01,2013-08-17 02:29:00,
2013-08-16 22:34:00,62.9,62.6,30.12,ENE,72,8.0,14.0,99,0.00,,-RA,2.16,VWS V14.01,2013-08-17 02:34:00,
2013-08-16 22:39:00,62.9,62.6,30.12,NE,38,4.0,14.0,99,0.00,,-RA,2.16,VWS V14.01,2013-08-17 02:39:00,
2013-08-16 22:44:00,62.9,62.6,30.12,NNE,13,7.0,14.0,99,0.00,,-RA,2.16,VWS V14.01,2013-08-17 02:44:00,
2013-08-16 22:49:00,62.9,62.6,30.12,NNE,25,4.0,14.0,99,0.00,,-RA,2.16,VWS V14.01,2013-08-17 02:49:00,
2013-08-16 22:54:00,62.9,62.6,30.12,ENE,65,4.0,14.0,99,0.00,,-RA,2.16,VWS V14.01,2013-08-17 02:54:00,
2013-08-16 22:59:00,62.9,62.6,30.12,ENE,74,2.0,14.0,99,0.01,,-RA,2.17,VWS V14.01,2013-08-17 02:59:00,
2013-08-16 23:04:00,63.0,62.7,30.12,NE,38,3.0,4.0,99,0.01,,-RA,2.17,VWS V14.01,2013-08-17 03:04:00,
2013-08-16 23:09:00,63.0,62.7,30.11,ENE,60,5.0,6.0,99,0.01,,-RA,2.17,VWS V14.01,2013-08-17 03:09:00,
2013-08-16 23:13:00,63.0,62.7,30.12,ENE,58,3.0,7.0,99,0.01,,-RA,2.17,VWS V14.01,2013-08-17 03:13:00,
2013-08-16 23:18:00,63.0,62.7,30.12,NE,56,3.0,7.0,99,0.01,,-RA,2.17,VWS V14.01,2013-08-17 03:18:00,
2013-08-16 23:23:00,63.0,62.7,30.12,ENE,69,3.0,7.0,99,0.01,,-RA,2.17,VWS V14.01,2013-08-17 03:23:00,
2013-08-16 23:28:00,63.1,62.8,30.12,ENE,70,5.0,7.0,99,0.01,,-RA,2.17,VWS V14.01,2013-08-17 03:28:00,
2013-08-16 23:33:00,63.1,62.8,30.11,ENE,70,3.0,10.0,99,0.01,,-RA,2.17,VWS V14.01,2013-08-17 03:33:00,
2013-08-16 23:38:00,63.0,62.7,30.11,NE,34,2.0,10.0,99,0.01,,-RA,2.17,VWS V14.01,2013-08-17 03:38:00,
2013-08-16 23:43:00,63.1,62.8,30.11,ENE,72,5.0,10.0,99,0.01,,-RA,2.17,VWS V14.01,2013-08-17 03:43:00,
2013-08-16 23:48:00,63.0,62.7,30.11,NNE,22,1.0,10.0,99,0.01,,-RA,2.17,VWS V14.01,2013-08-17 03:48:00,
2013-08-16 23:53:00,63.1,62.8,30.11,ENE,75,3.0,11.0,99,0.01,,-RA,2.17,VWS V14.01,2013-08-17 03:53:00,
2013-08-16 23:58:00,63.1,62.8,30.11,NE,44,1.0,11.0,99,0.01,,-RA,2.17,VWS V14.01,2013-08-17 03:58:00,